Location: U-46 Planetarium
(42.0300°N, 88.2740°W)
Time: 02:01:05
(UTC-05:00)

Daily predictions for brighter satellites

Satellite Brightness Start Highest point End
(mag) Time Altitude Azimuth Time Altitude Azimuth Time Altitude Azimuth
Cosmos 2278 Rocket 4.2 00:03:25 13° E 00:03:25 13° E 00:05:40 10° ENE
ERBS 4.4 00:07:21 10° WNW 00:08:46 21° WNW 00:08:46 21° WNW
Terra 4.0 00:10:53 13° WSW 00:12:20 15° W 00:15:05 10° NW
Cosmos 2034 Rocket 3.9 00:08:57 10° N 00:15:20 87° W 00:17:05 51° S
Cosmos 1933 4.2 00:12:29 10° N 00:16:12 41° ENE 00:16:12 41° ENE
COSMOS 2406 3.8 00:11:42 10° NNW 00:17:13 50° ENE 00:19:01 37° ESE
ALOS 2 2.4 00:23:03 88° ESE 00:23:05 88° E 00:27:31 10° NNW
CZ-4C R/B 2.2 00:22:54 56° SE 00:23:06 57° ESE 00:28:49 10° NE
Cosmos 2263 Rocket 3.4 00:20:31 18° WSW 00:24:07 37° WNW 00:29:18 10° N
Meteor 2-10 Rocket 3.9 00:20:47 10° N 00:26:03 58° ENE 00:27:04 50° ESE
Cosmos 292 Rocket 4.1 00:25:31 10° N 00:30:12 53° ENE 00:30:47 50° E
Sich 1 3.6 00:30:17 47° W 00:30:30 48° WNW 00:34:39 10° N
CZ-4B R/B 3.6 00:31:59 20° ENE 00:31:59 20° ENE 00:34:26 10° NNE
Cosmos 1869 4.3 00:28:48 10° NNW 00:32:05 37° WNW 00:32:05 37° WNW
Cosmos 1315 Rocket 4.0 00:34:45 33° ENE 00:34:45 33° ENE 00:37:38 10° NNE
Meteor 2-3 Rocket 4.4 00:36:55 38° ESE 00:37:52 41° E 00:43:16 10° NNE
Cosmos 1400 Rocket 3.0 00:41:35 73° N 00:41:35 73° N 00:45:22 10° N
Cosmos 2346 Rocket 4.3 00:48:40 57° S 00:50:03 84° E 00:56:10 10° N
Cosmos 773 Rocket 4.3 00:46:47 10° NNW 00:51:59 58° ENE 00:53:05 48° ESE
Cosmos 1634 Rocket 4.0 00:48:22 10° N 00:54:34 76° E 00:56:07 53° SSE
Cosmos 1844 Rocket 2.6 00:57:53 61° SW 00:58:53 84° WNW 01:04:30 10° NNE
Cosmos 1777 Rocket 3.9 00:58:49 64° SE 00:59:12 66° ESE 01:04:23 10° NNE
Cosmos 1862 Rocket 3.7 00:55:54 10° NNW 01:00:01 63° WNW 01:00:01 63° WNW
Cosmos 1933 Rocket 3.8 01:01:51 61° WNW 01:01:51 61° WNW 01:06:09 10° N
Spot 2 4.3 00:57:32 10° N 01:02:19 67° WNW 01:02:40 64° WSW
Cosmos 2142 Rocket 4.4 01:01:58 10° N 01:08:16 86° E 01:09:49 54° SSE
In-Cosmos 22 Rocket 4.2 01:08:49 55° SW 01:09:47 66° WNW 01:15:21 10° N
Cosmos 1346 Rocket 3.6 01:06:04 10° N 01:09:34 42° ENE 01:09:34 42° ENE
CZ-2C R/B 4.3 01:09:06 31° WSW 01:09:58 33° W 01:15:07 10° NNW
CZ-4C R/B 4.2 01:11:16 37° NNW 01:11:16 37° NNW 01:13:24 10° NNW
Aureole 3 4.4 01:11:57 51° SE 01:13:12 63° E 01:18:19 10° NNE
Cosmos 1892 3.1 01:16:20 64° N 01:16:20 64° N 01:19:42 10° N
Cosmos 2221 Rocket 4.0 01:14:29 10° N 01:18:51 52° E 01:19:08 51° E
SAR-Lupe-2 4.4 01:22:19 49° NNW 01:22:19 49° NNW 01:25:02 10° NNW
SL-27 R/B 3.6 01:23:14 10° N 01:25:39 40° NNE 01:25:39 40° NNE
SeaSat 1 4.2 01:26:03 11° ESE 01:30:04 28° NE 01:34:14 10° N
Cosmos 1703 Rocket 3.5 01:26:57 10° N 01:31:27 80° W 01:31:27 80° W
CZ-2C R/B 4.4 01:31:08 10° NNW 01:35:05 22° WNW 01:37:21 17° W
Cosmos 1606 3.4 01:32:19 10° N 01:36:00 47° ENE 01:36:00 47° ENE
H-2A R/B 2.5 01:38:54 10° NNE 01:43:28 85° ESE 01:43:43 79° SSE
Genesis I 3.5 01:46:04 62° ENE 01:46:04 62° ENE 01:49:27 10° NE
Cosmos 2278 Rocket 2.1 01:45:14 56° SSW 01:46:31 85° WNW 01:52:13 10° NNE
Cosmos 1844 4.5 01:49:47 31° WSW 01:51:47 43° WNW 01:57:07 10° NNE
Nadezhda 4 Rocket 4.2 01:50:39 42° SSE 01:52:49 66° E 01:59:05 10° NNE
Cosmos 1869 Rocket 3.7 01:54:19 58° W 01:54:27 58° W 01:58:46 10° N
Cosmos 1833 Rocket 3.5 01:49:32 10° NNW 01:55:01 48° ENE 01:58:54 19° SE
Okean 1-7 3.1 01:53:56 10° NNW 01:58:09 59° W 01:58:09 59° W
Cosmos 923 Rocket 4.1 01:57:21 10° NNW 02:02:25 54° WSW 02:02:55 52° SW
COSMOS 2487 4.2 01:59:19 10° N 02:02:27 28° ENE 02:03:26 24° E
Cosmos 1461 2.8 02:03:33 69° WNW 02:03:34 69° NW 02:07:33 10° NNE
CZ-4B R/B 3.6 02:05:33 19° WNW 02:05:33 19° WNW 02:07:10 10° NW
Cosmos 2297 3.9 02:04:57 46° SSE 02:06:26 63° ESE 02:12:03 10° NNE
Cosmos 2279 Rocket 4.3 02:01:15 10° NNW 02:07:15 50° W 02:08:54 40° SW
SL-16 R/B 4.2 02:03:12 10° ESE 02:08:29 30° ENE 02:13:47 10° N
Meteor 1-10 Rocket 4.3 02:06:11 10° NNW 02:11:55 67° W 02:13:33 47° SSW
CZ-4C R/B 3.9 02:08:02 13° W 02:12:01 28° NW 02:17:16 10° NNE
Exosat Rocket 4.3 02:12:11 10° NNW 02:17:39 66° ENE 02:24:04 14° SSE
Cosmos 1733 Rocket 3.1 02:19:01 57° SSE 02:19:47 72° E 02:24:08 10° NNE
Cosmos 2082 Rocket 2.2 02:14:19 10° NNW 02:19:58 80° ENE 02:22:59 29° SSE
Cosmos 1862 3.2 02:20:10 75° S 02:20:30 88° E 02:24:35 10° N
ADEOS Rocket 4.2 02:13:29 10° NNE 02:20:45 45° E 02:25:04 22° SSE
BREEZE-M DEB (TANK) 4.3 02:18:10 36° S 02:20:52 55° SE 02:43:48 10° ENE
Cosmos 192 4.4 02:16:05 10° NNW 02:20:56 56° WSW 02:21:34 52° SW
Cosmos 1825 2.6 02:21:09 50° WNW 02:21:09 50° WNW 02:24:49 10° N
PSLV R/B 3.9 02:17:20 10° N 02:21:37 54° WNW 02:22:20 48° WSW
Cosmos 1782 3.9 02:26:22 10° NNW 02:29:43 31° W 02:29:43 31° W
ATLAS 3B R/B 3.0 02:28:25 34° S 02:31:48 62° ESE 02:38:55 10° NE
Cosmos 2112 Rocket 4.4 02:27:33 10° NNW 02:32:33 45° WSW 02:33:25 41° SW
Cosmos 44 3.0 02:32:00 55° SSW 02:33:02 85° ESE 02:37:33 10° NE
Cosmos 1408 3.7 02:34:05 30° WNW 02:34:05 30° WNW 02:37:12 10° NNW
Sich 1 Rocket 4.3 02:38:43 31° SSE 02:40:33 49° E 02:44:59 10° NNE
Meteor 1-27 Rocket 3.9 02:35:03 10° NNW 02:40:57 65° W 02:43:19 36° SSW
Cosmos 44 Rocket 3.4 02:41:11 41° WSW 02:42:43 67° NW 02:47:30 10° NNE
Cosmos 1680 Rocket 4.5 02:40:46 10° NW 02:45:16 29° W 02:45:44 29° WSW
Cosmos 1627 Rocket 4.5 02:42:21 31° S 02:45:26 79° E 02:51:36 10° N
AQUA 4.0 02:40:53 10° NNE 02:45:38 68° ESE 02:47:29 36° S
Okean 3 3.9 02:41:31 10° N 02:45:44 58° E 02:47:40 29° SSE
PSLV R/B 4.1 02:45:26 49° SW 02:45:54 52° W 02:49:58 10° NNW
Helios 1A Rocket 3.4 02:42:37 10° N 02:46:36 49° WNW 02:47:25 42° WSW
Cosmos 1674 Rocket 3.5 02:45:07 10° NNW 02:49:33 73° W 02:50:50 45° SSW
Timation 2 Rocket 3.9 02:44:03 10° NNW 02:50:09 86° ENE 02:56:12 11° SSE
Cosmos 1937 Rocket 3.4 02:49:53 39° SSW 02:51:50 82° WNW 02:57:02 10° NNE
Meteor 2-20 Rocket 4.4 02:51:48 32° SSW 02:54:50 79° W 03:01:03 10° N
Resurs 1-4 Rocket 2.8 02:51:40 10° NNE 02:56:50 49° E 03:00:04 22° SSE
COBE Rocket 3.9 02:54:19 10° NNE 02:59:07 74° ESE 03:01:30 31° S
Geosat 4.1 02:54:48 10° NNE 02:59:50 70° ESE 03:02:09 32° S
Cosmos 1908 Rocket 3.5 02:58:20 38° S 03:00:01 85° E 03:04:30 10° N
BREEZE M DEB (TANK) 3.4 02:59:11 24° WNW 03:00:07 32° NNW 03:02:10 10° NE
BREEZE-M DEB (TANK) 2.8 03:04:04 31° SE 03:04:08 31° SE 03:07:53 10° ENE
Cosmos 1092 Rocket 4.4 03:01:33 29° SW 03:04:30 50° WNW 03:10:35 10° N
BREEZE-M R/B 4.5 02:57:42 10° WNW 03:05:18 49° NNE 03:09:03 10° E
Cosmos 1898 Rocket 4.1 03:03:10 29° WSW 03:05:23 45° WNW 03:10:26 10° N
SeaSat 1 2.8 03:05:50 33° SSW 03:07:23 43° WSW 03:12:06 10° NW
Cosmos 990 Rocket 4.0 03:05:25 33° SW 03:07:41 70° WNW 03:12:52 10° NNE
Okean 2 Rocket 4.1 03:05:26 18° SSE 03:08:19 40° E 03:12:28 10° NNE
IRS-1C 4.1 03:05:36 10° NNE 03:10:58 82° WNW 03:13:51 28° SSW
Cosmos 1378 Rocket 3.4 03:06:54 10° N 03:11:14 77° W 03:13:18 30° S
CZ-2D R/B 2.4 03:06:59 10° NNE 03:12:21 67° ESE 03:15:55 22° S
Cosmos 1125 Rocket 4.4 03:11:41 18° SSE 03:15:15 44° ESE 03:20:16 10° NNE
Cosmos 2026 Rocket 4.0 03:13:40 27° SSW 03:17:04 66° W 03:23:08 10° N
Cosmos 1553 Rocket 4.1 03:11:16 10° N 03:17:41 81° E 03:23:53 11° S
ARIANE 5 R/B 2.7 03:12:42 10° NNE 03:17:41 67° ESE 03:20:57 22° S
Cosmos 1340 3.9 03:14:43 10° NW 03:17:51 25° W 03:18:02 25° W
Spot 4 Rocket 4.0 03:14:57 10° NNE 03:20:08 85° ESE 03:23:21 24° SSW
SL-08 R/B 3.8 03:18:18 29° SSW 03:20:15 44° W 03:24:51 10° NNW
Cosmos 1782 Rocket 3.6 03:20:21 26° S 03:22:49 87° E 03:27:20 10° N
USA 238 DEB 3.7 03:18:44 25° SW 03:23:10 87° WNW 03:30:14 10° NE
USA 238 3.7 03:18:50 25° SW 03:23:16 88° WNW 03:30:20 10° NE
UNKNOWN OBJECT B 3.9 03:23:55 10° NNE 03:27:25 37° E 03:30:08 15° SSE
IRS-1D 3.4 03:22:39 10° NNE 03:27:48 89° WNW 03:31:04 22° SSW
Meteor 1-18 Rocket 4.2 03:25:09 10° N 03:30:44 84° E 03:36:18 10° S
Cosmos 2278 Rocket 4.4 03:28:15 10° W 03:31:28 15° NW 03:34:43 10° N
CZ-3A R/B 4.4 03:31:03 16° S 03:34:07 19° SSE 03:47:32 10° SE
Meteor 2-11 Rocket 4.4 03:29:17 10° NNW 03:35:27 75° W 03:41:13 12° S
Meteor 1-20 Rocket 4.3 03:32:31 17° S 03:37:03 85° E 03:42:56 10° N
COSMOS 2487 4.3 03:35:21 10° WNW 03:37:16 16° W 03:37:16 16° W
Cosmos 1943 Rocket 3.6 03:33:32 10° SSE 03:38:28 32° ESE 03:43:25 10° NE
Cosmos 1833 Rocket 3.8 03:34:07 10° NW 03:38:36 25° WSW 03:40:32 20° SW
Okean O Rocket 4.3 03:36:47 10° ENE 03:38:46 13° E 03:40:45 10° ESE
GP-B 4.4 03:36:28 10° NNW 03:40:07 25° WNW 03:41:55 19° WSW
Cosmos 1346 2.7 03:37:49 10° N 03:40:33 89° E 03:41:59 25° S
Cosmos 2369 Rocket 2.5 03:36:24 17° S 03:40:44 62° ESE 03:46:18 10° NNE
Cosmos 1269 Rocket 4.4 03:38:47 10° NNW 03:44:06 69° ENE 03:49:22 10° SSE
Cosmos 1437 2.9 03:41:04 10° NNW 03:44:14 51° W 03:45:48 25° SSW
Cosmos 1655 Rocket 4.3 03:40:47 20° SSW 03:45:04 52° WNW 03:51:10 10° N
Cosmos 405 Rocket 3.0 03:41:40 10° N 03:45:40 69° E 03:49:32 10° SSE
UNK 4.1 03:42:46 19° SSW 03:45:48 45° W 03:50:19 10° NNW
CZ-3B DEB 4.0 03:34:48 10° NW 03:47:49 66° SW 03:58:22 10° SSE
COSMOS 2455 3.8 03:44:20 10° S 03:49:53 41° ESE 03:55:28 10° NE
Cosmos 1812 3.1 03:47:32 10° NNW 03:51:13 43° W 03:53:35 19° SSW
SL-16 R/B 2.9 03:46:39 14° S 03:51:50 47° W 03:57:51 10° NNW
ADEOS II 3.9 03:47:59 10° NE 03:52:24 27° E 03:56:47 10° SSE
Cosmos 1975 Rocket 3.3 03:48:25 10° NNW 03:52:36 48° W 03:55:49 16° SSW
Cosmos 372 Rocket 4.1 03:49:53 15° SSW 03:54:11 80° ESE 03:59:24 10° NNE
Cosmos 2151 Rocket 3.9 03:51:49 10° S 03:56:17 67° E 04:00:48 10° NNE
USA 267 3.3 03:50:59 10° NE 03:57:33 74° SE 04:03:11 15° SW
USA 161 2.4 04:00:06 10° SSE 04:02:20 40° ENE 04:04:46 10° N
NOSS 3-2 (C) 3.7 03:57:46 14° SSW 04:02:56 69° ESE 04:09:28 10° NE
Cosmos 2082 Rocket 3.9 04:00:31 10° WNW 04:03:16 14° W 04:04:46 13° WSW
NOSS 3-2 (A) 3.5 03:58:42 16° SSW 04:03:42 89° ESE 04:10:20 10° NE
Cosmos 1536 4.5 04:00:12 10° SSE 04:03:45 32° E 04:07:20 10° NNE
ADEOS Rocket 4.2 03:59:04 10° N 04:06:02 39° WNW 04:12:01 12° SW
Abrixas 4.4 04:03:37 10° NW 04:06:04 28° NNE 04:08:30 10° ENE
Cosmos 158 Rocket 3.9 04:02:12 10° NNW 04:07:18 71° WSW 04:12:15 10° S
SL-24 R/B 4.2 04:04:01 10° NNE 04:08:12 85° ESE 04:12:57 10° SSW
Cosmos 1602 3.7 04:08:22 10° S 04:12:17 89° WSW 04:16:16 10° N
Cosmos 2344 3.7 04:05:50 13° SW 04:12:46 87° NW 04:21:24 10° NE
Cosmos 1536 Rocket 3.6 04:10:47 10° N 04:15:17 89° ENE 04:19:46 10° S
Cosmos 2315 Rocket 4.1 04:10:34 10° N 04:16:55 84° E 04:23:10 10° S
Cosmos 2266 Rocket 4.2 04:14:08 10° SSW 04:20:27 62° W 04:26:49 10° N
BREEZE-M DEB (TANK) 3.1 04:16:48 10° WNW 04:21:18 39° SW 04:23:56 10° SE
CENTAUR R/B 3.9 04:16:21 10° S 04:21:33 32° ESE 04:27:17 10° NE
ATLAS 3B R/B 3.9 04:16:16 10° WSW 04:22:56 35° NW 04:29:24 10° NNE
MOZ.5/SAFIR/RUBIN 5/SL-8 4.2 04:18:36 10° S 04:23:09 44° W 04:27:41 10° NNW
Cosmos 1048 Rocket 4.4 04:22:20 10° NNW 04:27:30 47° WSW 04:32:35 10° S
GENESIS II 4.3 04:26:48 11° SW 04:30:43 76° NW 04:34:45 10° NNE
Gbstr 26 Del rocket 2.9 04:27:41 11° SW 04:31:14 57° SE 04:35:00 10° ENE
USA 234 4.3 04:25:37 10° ESE 04:31:53 51° NNE 04:38:10 10° NW
Cosmos 1633 3.6 04:29:01 10° SW 04:32:11 31° WNW 04:35:28 10° NNW
Okean 1 4.4 04:29:47 10° NNW 04:33:14 27° W 04:36:39 10° SSW
Resurs 1-4 Rocket 3.6 04:32:14 10° NNW 04:36:19 23° WNW 04:40:23 10° WSW
CZ-4B R/B 4.1 04:35:09 10° NNE 04:40:34 50° E 04:46:00 10° S
MOS 1 Rocket 4.4 04:36:56 10° N 04:41:48 35° WNW 04:46:28 10° SW
Meteor 2-4 Rocket 3.7 04:37:59 10° NNW 04:43:40 82° W 04:49:09 10° S
Okean 1 Rocket 3.2 04:40:35 10° S 04:45:03 85° E 04:49:33 10° N
